This demonstration page uses our WeatherBlox Daily Observations layout. Learn more.

Left ArrowRight Arrow

Hourly Observations for December 10, 2022

Temp ( °F °C ) Dew Point ( °F °C ) Humidity (%) Winds ( mph kmh ) Pressure ( in mb ) Visibility ( mi km ) Precip ( " mm )
12:03 am 00:03 Cloudy 57 13.9 56 13.3 96 96 NE 7 11 30.15 1021 8 13 0.00 0.00
12:53 am 00:53 Cloudy 56 13.3 55 12.8 97 97 E 8 13 30.13 1020 10 16 0.00 0.00
1:04 am 01:04 Cloudy 56 13.3 55 12.8 97 97 ENE 7 11 30.15 1021 10 16 0.00 0.00
1:53 am 01:53 Cloudy 56 13.3 55 12.8 97 97 ENE 6 9 30.14 1021 10 16 0.00 0.00
2:53 am 02:53 Cloudy 55 12.8 53 11.7 93 93 E 8 13 30.15 1021 10 16 0.00 0.00
3:53 am 03:53 Cloudy 54 12.2 53 11.7 97 97 NE 7 11 30.15 1021 10 16 0.00 0.00
4:43 am 04:43 Cloudy with Mist and Fog 53 11.7 52 11.1 96 96 ENE 6 9 30.16 1021 6 10 0.00 0.00
4:53 am 04:53 Cloudy with Mist and Fog 53 11.7 53 11.7 100 100 ENE 7 11 30.15 1021 6 10 0.00 0.00
5:25 am 05:25 Cloudy 53 11.7 52 11.1 96 96 E 7 11 30.18 1022 10 16 0.00 0.00
5:53 am 05:53 Cloudy 54 12.2 51 10.6 90 90 E 7 11 30.16 1022 10 16 0.00 0.00
6:53 am 06:53 Cloudy 53 11.7 51 10.6 93 93 ENE 8 13 30.18 1022 10 16 0.00 0.00
7:53 am 07:53 Cloudy 53 11.7 51 10.6 93 93 ENE 3 6 30.19 1022 10 16 0.00 0.00
8:53 am 08:53 Cloudy 53 11.7 50 10 89 89 E 6 9 30.20 1023 10 16 0.00 0.00
9:18 am 09:18 Cloudy 54 12.2 50 10 86 86 ESE 5 7 30.22 1024 10 16 0.00 0.00
9:28 am 09:28 Cloudy 53 11.7 50 10 89 89 ESE 5 7 30.23 1024 10 16 0.00 0.00
9:39 am 09:39 Cloudy 54 12.2 50 10 86 86 ENE 6 9 30.22 1024 10 16 0.00 0.00
9:53 am 09:53 Cloudy 54 12.2 50 10 86 86 ESE 3 6 30.22 1023 10 16 0.00 0.00
10:26 am 10:26 Cloudy 54 12.2 51 10.6 90 90 ENE 5 7 30.23 1024 10 16 0.00 0.00
10:42 am 10:42 Cloudy 55 12.8 51 10.6 86 86 ENE 5 7 30.23 1024 10 16 0.00 0.00
10:53 am 10:53 Cloudy 55 12.8 51 10.6 86 86 ENE 5 7 30.22 1023 10 16 0.00 0.00
11:53 am 11:53 Cloudy 56 13.3 51 10.6 84 84 E 5 7 30.21 1023 10 16 0.00 0.00
12:53 pm 12:53 Cloudy 57 13.9 51 10.6 80 80 E 5 7 30.19 1022 10 16 0.00 0.00
1:53 pm 13:53 Cloudy 57 13.9 51 10.6 80 80 ESE 3 6 30.16 1021 10 16 0.00 0.00
2:42 pm 14:42 Cloudy 58 14.4 51 10.6 78 78 ESE 5 7 30.16 1021 10 16 0.00 0.00
2:53 pm 14:53 Cloudy 58 14.4 51 10.6 78 78 SSE 5 7 30.15 1021 10 16 0.00 0.00
3:53 pm 15:53 Cloudy 57 13.9 51 10.6 80 80 SSE 3 6 30.16 1021 10 16 0.00 0.00
4:53 pm 16:53 Cloudy 56 13.3 52 11.1 87 87 ESE 7 11 30.16 1022 10 16 0.00 0.00
5:21 pm 17:21 Cloudy 56 13.3 52 11.1 87 87 SSE 6 9 30.18 1022 10 16 0.00 0.00
5:53 pm 17:53 Cloudy 55 12.8 52 11.1 89 89 SE 8 13 30.18 1022 10 16 0.00 0.00
6:12 pm 18:12 Cloudy 55 12.8 52 11.1 89 89 SE 6 9 30.18 1022 10 16 0.00 0.00
6:53 pm 18:53 Cloudy 54 12.2 51 10.6 90 90 SE 6 9 30.18 1022 10 16 0.00 0.00
7:21 pm 19:21 Cloudy 54 12.2 51 10.6 90 90 ESE 7 11 30.18 1022 10 16 0.00 0.00
7:53 pm 19:53 Cloudy 54 12.2 51 10.6 90 90 E 6 9 30.20 1023 10 16 0.00 0.00
8:53 pm 20:53 Cloudy 54 12.2 50 10 86 86 VRB 5 7 30.22 1023 10 16 0.00 0.00
9:10 pm 21:10 Cloudy 54 12.2 50 10 86 86 SE 6 9 30.22 1024 10 16 0.00 0.00
9:48 pm 21:48 Cloudy 54 12 50 10 88 88 S 14 22 30.18 1022 10 16 0.00 0.00
9:53 pm 21:53 Cloudy 53 11.7 50 10 89 89 S 9 15 30.17 1022 10 16 0.00 0.00
10:24 pm 22:24 Cloudy 53 11.7 51 10.6 93 93 SSE 5 7 30.19 1022 10 16 0.01 0.13
10:53 pm 22:53 Cloudy 53 11.7 51 10.6 93 93 SSE 5 7 30.17 1022 10 16 0.01 0.13
11:53 pm 23:53 Cloudy 53 11.7 51 10.6 93 93 SSE 6 9 30.17 1022 10 16 0.00 0.00

Powered by AerisWeather